Weather Roundup
Issued by NWS

Home | Current Version | Previous Version | Graphics & Text | Print | Product List | Glossary Off
Versions: 1 2 3 4 5 6 7 8 9 10 11 12 13 14 15 16 17 18 19 20 21 22 23 24 25 26 27 28 29 30 31 32 33 34 35 36 37 38 39 40 41 42 43 44 45 46 47 48 49 50

000
NZUS93 KARX 271710
HRRWXR

CURRENT HOURLY OBSERVATIONS ACROSS
MUCH OF THE UPPER MISSISSIPPI VALLEY
NATIONAL WEATHER SERVICE LA CROSSE WI
1100 AM CST TUE JAN 27 2015


...SOUTHEAST MINNESOTA...


CITY           SKY/WX    TMP DP  RH WIND       PRES   REMARKS
ROCHESTER      CLOUDY    30  25  81 E5        30.16R WCI  25
ROCHESTER/MAYO CLOUDY    31  24  74 NE5       30.17R WCI  26
WINONA         CLOUDY    30  23  74 NE5       30.21R WCI  25
AUSTIN         CLOUDY    32  27  80 CALM      30.16S
ALBERT LEA     CLOUDY    34  28  80 SE5       30.15S WCI  30
DODGE CENTER   CLOUDY    30  27  86 E3        30.15S
PRESTON        CLOUDY    28  24  84 E3        30.17R
OWATONNA       CLOUDY    34  27  75 CALM      30.16S
FARIBAULT      CLOUDY    34  27  75 CALM      30.17R
$$

...ELSEWHERE IN MINNESOTA...


CITY           SKY/WX    TMP DP  RH WIND       PRES   REMARKS
MINNEAPOLIS    CLOUDY    32  24  72 SE7       30.18R WCI  26
INTNL FALLS    CLOUDY    25  21  85 VRB3      30.11R
DULUTH         CLOUDY    27  22  81 S3        30.13R
RED WING       CLOUDY    32  25  74 SE3       30.18S
REDWOOD FALLS  CLOUDY    32  29  88 S10       30.15R WCI  24
MANKATO        PTSUNNY   34  25  69 E5        30.16S WCI  30
WORTHINGTON    CLOUDY    30  28  93 SE13      30.11S WCI  20
FAIRMONT       CLOUDY    34  25  69 SE9       30.14F WCI  26
$$

...SOUTHWEST WISCONSIN...


CITY           SKY/WX    TMP DP  RH WIND       PRES   REMARKS
LA CROSSE      CLOUDY    31  21  66 VRB3      30.20R
PRAIRIE DU CHI CLOUDY    30  20  67 N8        30.21R WCI  22
BOSCOBEL       CLOUDY    29  21  72 CALM      30.21R
LONE ROCK      CLOUDY    27  21  78 SE3       30.20R
PLATTEVILLE    CLOUDY    27  23  84 NE6       30.18R WCI  21
FORT MC COY    CLOUDY    28  23  82 E3        30.20R
CAMP DOUGLAS   CLOUDY    27  27 100 NE2       30.18R
VIROQUA        CLOUDY    26  22  85 NE5       30.17R WCI  21
WIS DELLS      CLOUDY    26  23  91 E5        30.17S FOG     WCI  20
$$

...ELSEWHERE IN WISCONSIN...


CITY           SKY/WX    TMP DP  RH WIND       PRES   REMARKS
MILWAUKEE      MOSUNNY   29  15  56 NE12      30.18R WCI  19
MADISON        FOG       27  24  89 NE5       30.17S VSB 1   WCI  22
GREEN BAY      CLOUDY    26  17  68 NE7       30.22R WCI  18
EAU CLAIRE     CLOUDY    29  19  66 NE6       30.18R WCI  23
BLACK RVR FLS  CLOUDY    28  22  81 E3        30.19R
MEDFORD        CLOUDY    23  21  91 E3        30.15R FOG
WAUSAU         CLOUDY    23  20  88 SE5       30.16R FOG     WCI  17
WIS RAPIDS     CLOUDY    24  20  84 E6        30.19F FOG     WCI  17
MARSHFIELD     CLOUDY    24  21  88 E5        30.17R FOG     WCI  18
RICE LAKE      CLOUDY    29  22  76 CALM      30.19R
$$

...NORTHEAST IOWA...


CITY           SKY/WX    TMP DP  RH WIND       PRES   REMARKS
DECORAH        CLOUDY    28  25  86 NE5       30.17R WCI  23
MASON CITY     CLOUDY    34  28  79 NE3       30.17R
CHARLES CITY   CLOUDY    32  30  93 E7        30.17S WCI  26
OELWEIN        CLOUDY    30  27  86 NE9       30.18R WCI  22
$$

...ELSEWHERE IN IOWA...


CITY           SKY/WX    TMP DP  RH WIND       PRES   REMARKS
DES MOINES     MOSUNNY   40  31  70 E5        30.18R
IOWA CITY      CLOUDY    33  27  78 NE7       30.21R WCI  27
FORT DODGE     SUNNY     36  30  80 E7        30.16S WCI  30
$$

...NORTHERN ILLINOIS...


CITY           SKY/WX    TMP DP  RH WIND       PRES   REMARKS
CHICAGO-OHARE  CLOUDY    29  20  69 N8        30.16R WCI  21
CHICAGO-MIDWAY CLOUDY    31  19  61 NE9       30.16R WCI  23
MOLINE         CLOUDY    29  22  75 N10       30.19R WCI  20
ROCKFORD       CLOUDY    29  24  82 E7        30.19R HAZE    WCI  22
PEORIA         CLOUDY    31  25  78 NE9       30.18R WCI  23
$$

NOTE: "FAIR" INDICATES FEW OR NO CLOUDS BELOW 12,000 FEET WITH NO
SIGNIFICANT WEATHER AND/OR OBSTRUCTIONS TO VISIBILITY. WIND
SPEEDS ARE IN MILES-PER-HOUR.



USA.gov is the U.S. government's official web portal to all federal, state and local government web resources and services.